SL-14 DEB, 45325

Orbit data source: Space-Track

SL-14 DEB, 45325 is space debris in LEO originally from a launch on Thu, 15 Aug 1991 UTC launched from the Plesetsk Missile And Space Complex (PKMTR). Debris objects in space refer to the collection of defunct objects orbiting the Earth. Examples of debris include non-operational satellites, rocket bodies, and fragments generated from explosions, collisions, or faulty payload assembly.

Loading next visibility...
SL-14 DEB details
Identifier
45325, 1991-056BP
Orbit
LEO
Last TLE update12 hours ago
Origin
Flag of CISRosgidromet (CIS)
ManufacturerUnknown
MissionSpacecraft
Bus & MotorUnknown
MassUnknown
Launch date (UTC)
1991-08-15 (33 years ago)
Launch vehicleUnknown
Launch site
Plesetsk Missile And Space Complex (PKMTR)
Object type
Payload
Rocket body
Debris
Shape & HBRUnknown
Radar Cross SectionSmall (<0.1 m²)

Expand to show TLE details & history

TLE from 12 hours ago
0 SL-14 DEB
1 45325U 91056BP  24339.65662987  .00051187  00000-0  28436-1 0  9996
2 45325  82.5399  51.3050 0154309 285.6613  72.7579 14.04945288238661
Epoch: 2024-12-04T15:45Z
Definitive object data (Epoch: 2024-12-04T15:45:32.82Z)
Latitude-0.00004°
Longitude100.9696°
Altitude848.05 km
Speed7.445 km/s
True Right ascension03h 25m 13s
True Declination0° 00' 00"
Sunlit
Object was in full shadow at TLE epoch
Visualization TLE readout
Latitude82.17187°
Longitude-150.81117°
Altitude999.615 km
Speed7.303 km/s
Apparent Right ascension13h 34m 32s
Apparent Declination29° 59' 52"
Sunlit
Object is in daylight
Visualization observer readout
Local Sidereal Time02:07:28
Azimuth7.567° NNE
Elevation-19.669°
Doppler factor1
Orbital elements
Apogee altitude985.748 km
Perigee altitude761.939 km
Semi-major axis7,251.98 km
Eccentricity0.0154309
Inclination82.5399°
RAAN51.305°
Arg. of periapsis285.6613°
True anomaly74.45615°
Mean anomaly72.7579°
Eccentric anomaly73.60608°
Mean motion3.51446 °/min
BSTAR0.028436
Orbital period102.43 mins
Loading maneuver chart data...
Loading historical data...
Loading historical data...
Loading historical data...
Loading historical data...
Loading historical data...
Loading historical data...
Loading historical data...

SL-14 DEB Visibility forecast

Observer location: undefined°, undefined

Span
Click to sort rows by Start time (UTC) header in descending order
Start Az.
Max El. time (UTC)
Max El. Az.
Max El.
End time (UTC)
End Az.
11 mins2024-12-05 05:32:06.663Z175.986° S2024-12-05 05:37:06.663Z114.02° SE43.097°2024-12-05 05:43:06.663Z12.546° NNE
5 mins2024-12-05 07:19:06.663Z267.685° W2024-12-05 07:21:06.663Z290.316° WNW16.006°2024-12-05 07:24:06.663Z323.227° NNW
10 mins2024-12-05 16:17:06.663Z10.924° NNE2024-12-05 16:21:06.663Z67.529° E35.895°2024-12-05 16:27:06.663Z149.768° SSE
8 mins2024-12-05 18:01:06.663Z315.637° NNW2024-12-05 18:04:06.663Z278.928° WNW23.159°2024-12-05 18:09:06.663Z222.628° SW
|